Flag for Algeria Weather past 2 weeks in Oran, Algeria

Now
63 °F

Passing clouds.


Feels Like: 63 °F
Forecast: 53 / 59 °F
Wind: 14 mph from Southwest

Location: Oran / Es Senia

Current Time: Dec 27, 2014 at 2:46:00 PM

Latest Report: Dec 27, 2014 at 2:00 PM


Visibility: N/A

Pressure: 30.24 "Hg

Humidity: 64%

Dew point: 50 °F

Location of OranLocation

Historic Weather in Oran — Graph

°F

Oran temperature yesterday

Maximum temperature yesterday: 61 °F (at 3:00 PM)
Minimum temperature yesterday: 41 °F (at 2:30 AM)
Average temperature yesterday: 49 °F

Past Weeks' High & Low Weather Summary

 TemperatureHumidityPressure
High70 °F (Dec 13, 3:00 PM)100% (Dec 13, 8:00 AM)30.48 "Hg (Dec 13, 8:00 AM)
Low39 °F (Dec 13, 3:00 AM)38% (Dec 23, 2:00 PM)29.89 "Hg (Dec 14, 4:30 AM)
Average52 °F82%30.28 "Hg
* Reported Dec 12 1:00 PM — Dec 27 1:30 PM, Oran, Weather by CustomWeather, © 2014

Note: Actual official high and low records may vary slightly from our data, if they occured in-between our weather recording intervals... More about our weather records

Advertising

Oran weather history for previous 24 hours

 ConditionsComfort  
Time TempWeatherWind HumidityBarometerVisibility
1:30 PM
Dec 27
59 °FPassing clouds.14 mph68%30.27 "HgN/A
1:00 PM59 °FPassing clouds.14 mph68%30.30 "HgN/A
12:30 PM59 °FScattered clouds.9 mph63%30.33 "HgN/A
12:00 PM59 °FScattered clouds.14 mph63%30.36 "HgN/A
11:30 AM55 °FScattered clouds.12 mph77%30.36 "HgN/A
11:00 AM54 °FScattered clouds.9 mph82%30.36 "HgN/A
10:30 AM52 °FPassing clouds.8 mph88%30.36 "HgN/A
10:00 AM48 °FPassing clouds.2 mph94%30.36 "HgN/A
9:30 AM46 °FPassing clouds.5 mph93%30.36 "HgN/A
9:00 AM43 °FPassing clouds.5 mph93%30.36 "HgN/A
8:30 AM41 °FSunny.5 mph93%30.36 "Hg10 mi
8:00 AM41 °FClear.5 mph100%30.36 "Hg10 mi
7:30 AM41 °FClear.5 mph100%30.36 "Hg6 mi
7:00 AM41 °FClear.5 mph100%30.36 "Hg6 mi
6:30 AM41 °FClear.6 mph100%30.36 "Hg6 mi
6:00 AM43 °FClear.5 mph93%30.36 "Hg6 mi
5:30 AM41 °FClear.6 mph100%30.39 "Hg6 mi
4:30 AM41 °FPassing clouds.5 mph100%30.39 "Hg4 mi
4:00 AM43 °FPassing clouds.No wind93%30.39 "Hg4 mi
3:30 AM43 °FPassing clouds.No wind93%30.39 "Hg4 mi
3:00 AM45 °FPassing clouds.No wind93%30.39 "Hg4 mi
2:30 AM45 °FClear.6 mph93%30.39 "Hg6 mi
2:00 AM45 °FClear.5 mph93%30.39 "Hg6 mi
1:30 AM45 °FClear.5 mph93%30.42 "Hg5 mi
1:00 AM45 °FFog.2 mph93%30.42 "Hg2 mi
12:30 AM46 °FPassing clouds.2 mph100%30.42 "Hg4 mi
12:00 AM46 °FPassing clouds.5 mph100%30.42 "Hg4 mi
11:30 PM
Dec 26
46 °FPassing clouds.No wind100%30.42 "Hg4 mi
11:00 PM46 °FPassing clouds.No wind100%30.42 "Hg4 mi
10:30 PM46 °FPassing clouds.2 mph100%30.42 "Hg4 mi
10:00 PM48 °FClear.No wind94%30.42 "Hg5 mi
9:30 PM48 °FClear.6 mph94%30.42 "Hg5 mi
9:00 PM48 °FClear.5 mph94%30.42 "Hg5 mi
8:30 PM50 °FPassing clouds.No wind88%30.42 "HgN/A
8:00 PM52 °FPassing clouds.No wind94%30.42 "HgN/A
7:30 PM52 °FPassing clouds.No wind94%30.42 "HgN/A
7:00 PM55 °FPassing clouds.No wind88%30.42 "HgN/A
6:30 PM57 °FPassing clouds.No wind88%30.42 "HgN/A
6:00 PM59 °FPassing clouds.2 mph82%30.39 "HgN/A
5:30 PM59 °FPartly sunny.2 mph63%30.39 "HgN/A
5:00 PM59 °FPartly sunny.2 mph63%30.39 "HgN/A
4:30 PM61 °FBroken clouds.2 mph59%30.39 "HgN/A
4:00 PM61 °FBroken clouds.6 mph59%30.39 "HgN/A
3:30 PM61 °FBroken clouds.7 mph72%30.39 "HgN/A
3:00 PM61 °FBroken clouds.6 mph72%30.42 "HgN/A
2:30 PM59 °FBroken clouds.2 mph77%30.42 "HgN/A
2:00 PM59 °FBroken clouds.6 mph77%30.42 "HgN/A
Weather by CustomWeather, © 2014

See weather overviewHow to use our weather pages